Location: Bijele Vode
(45.2833°N, 16.2000°E)
Time: 16:37:43
(UTC+00:00)

Meteor 2-5 Rocket - Pass Details

Date: 18 September 2020
Orbit: 833 x 912 km, 81.2° (Epoch: 20 October)

Event Time Altitude Azimuth Distance (km) Brightness Sun altitude
Rises 18:38:58 0° 355° (N) 3,414 7.2 -17.8°
Reaches altitude 10° 18:41:32 10° 3° (N) 2,484 6.4 -18.3°
Maximum altitude 18:46:48 39° 72° (ENE) 1,270 4.2 -19.1°
Enters shadow 18:48:04 35° 102° (ESE) 1,374 4.3 -19.3°
